| time (UTC) | temp C | wind direction | speed KPH | gust KPH | rain 1hr cm | rain 24hr cm | rain mn cm | humidity % | barometer mb |
| 20260507123643 | 8 | 312 | 6.4 | 9.7 | 0.00 | 0.00 | 0.00 | 81 | 1010.1 |
| 20260507123145 | 8 | 354 | 4.8 | 8.0 | 0.00 | 0.00 | 0.00 | 88 | 1010.1 |
| 20260507122644 | 7 | 350 | 1.6 | 3.2 | 0.00 | 0.00 | 0.00 | 90 | 1010.0 |
| 20260507122142 | 6 | 340 | 4.8 | 11.3 | 0.00 | 0.00 | 0.00 | 91 | 1010.1 |
| 20260507121642 | 7 | 310 | 4.8 | 11.3 | 0.00 | 0.00 | 0.00 | 93 | 1010.0 |
| 20260507121142 | 7 | 323 | 1.6 | 3.2 | 0.00 | 0.00 | 0.00 | 94 | 1009.8 |
| 20260507120642 | 7 | 303 | 3.2 | 8.0 | 0.00 | 0.00 | 0.00 | 94 | 1009.8 |
| 20260507115641 | 7 | 343 | 3.2 | 4.8 | 0.00 | 0.00 | 0.00 | 96 | 1009.8 |
| 20260507115243 | 7 | 0.0 | 0.0 | 0.00 | 0.00 | 0.00 | 96 | 1009.8 | |
| 20260507114644 | 7 | 0.0 | 0.0 | 0.00 | 0.00 | 0.00 | 96 | 1009.8 | |
| 20260507114141 | 7 | 344 | 1.6 | 1.6 | 0.00 | 0.00 | 0.00 | 94 | 1009.8 |
| 20260507113639 | 7 | 338 | 1.6 | 3.2 | 0.00 | 0.00 | 0.00 | 95 | 1009.8 |
| 20260507112639 | 7 | 331 | 1.6 | 3.2 | 0.00 | 0.00 | 0.00 | 94 | 1009.8 |
| 20260507112138 | 7 | 330 | 1.6 | 3.2 | 0.00 | 0.00 | 0.00 | 93 | 1009.8 |
| 20260507111638 | 7 | 331 | 0.0 | 1.6 | 0.00 | 0.00 | 0.00 | 93 | 1009.8 |
| 20260507111136 | 7 | 338 | 3.2 | 3.2 | 0.00 | 0.00 | 0.00 | 93 | 1009.8 |
| 20260507110638 | 7 | 336 | 1.6 | 3.2 | 0.00 | 0.00 | 0.00 | 92 | 1009.8 |
| 20260507110137 | 7 | 327 | 4.8 | 8.0 | 0.00 | 0.00 | 0.00 | 92 | 1009.8 |
| 20260507105636 | 7 | 303 | 4.8 | 9.7 | 0.00 | 0.00 | 0.00 | 95 | 1009.8 |
| 20260507105135 | 6 | 330 | 6.4 | 9.7 | 0.00 | 0.00 | 0.00 | 96 | 1009.3 |
| 20260507104637 | 6 | 336 | 4.8 | 4.8 | 0.00 | 0.00 | 0.00 | 99 | 1009.1 |
| 20260507104137 | 6 | 360 | 1.6 | 4.8 | 0.00 | 0.00 | 0.00 | 99 | 1009.1 |
| 20260507103637 | 5 | 348 | 9.7 | 14.5 | 0.00 | 0.00 | 0.00 | 99 | 1009.1 |
| 20260507103134 | 5 | 334 | 4.8 | 9.7 | 0.00 | 0.00 | 0.00 | 99 | 1009.1 |
| 20260507102639 | 5 | 15 | 8.0 | 14.5 | 0.00 | 0.00 | 0.00 | 99 | 1009.1 |
| 20260507102135 | 5 | 338 | 1.6 | 1.6 | 0.00 | 0.00 | 0.00 | 99 | 1008.9 |
| 20260507101634 | 5 | 350 | 3.2 | 4.8 | 0.00 | 0.00 | 0.00 | 99 | 1008.7 |
| 20260507101133 | 5 | 351 | 4.8 | 8.0 | 0.00 | 0.00 | 0.00 | 99 | 1009.1 |
| 20260507100632 | 5 | 347 | 3.2 | 3.2 | 0.00 | 0.00 | 0.00 | 99 | 1008.9 |
| 20260507100133 | 5 | 346 | 1.6 | 3.2 | 0.00 | 0.00 | 0.00 | 99 | 1009.1 |
| 20260507095633 | 5 | 341 | 1.6 | 1.6 | 0.00 | 0.00 | 0.00 | 99 | 1009.1 |
| 20260507095132 | 5 | 337 | 0.0 | 1.6 | 0.00 | 0.00 | 0.00 | 99 | 1009.1 |
| 20260507094631 | 5 | 336 | 0.0 | 1.6 | 0.00 | 0.00 | 0.00 | 99 | 1009.1 |
| 20260507094132 | 5 | 339 | 1.6 | 1.6 | 0.00 | 0.00 | 0.00 | 99 | 1009.4 |
| 20260507093633 | 5 | 336 | 0.0 | 1.6 | 0.00 | 0.00 | 0.00 | 99 | 1009.4 |
| 20260507093131 | 5 | 343 | 4.8 | 9.7 | 0.00 | 0.00 | 0.00 | 99 | 1009.1 |
| 20260507092630 | 5 | 348 | 3.2 | 3.2 | 0.00 | 0.00 | 0.00 | 99 | 1009.4 |
| 20260507092129 | 5 | 336 | 1.6 | 3.2 | 0.00 | 0.00 | 0.00 | 99 | 1009.3 |
| 20260507091630 | 5 | 0.0 | 0.0 | 0.00 | 0.00 | 0.00 | 99 | 1009.1 | |
| 20260507091129 | 5 | 345 | 3.2 | 3.2 | 0.00 | 0.00 | 0.00 | 99 | 1009.4 |
| 20260507090628 | 5 | 349 | 1.6 | 1.6 | 0.00 | 0.00 | 0.00 | 99 | 1009.4 |
| 20260507085629 | 5 | 356 | 1.6 | 3.2 | 0.00 | 0.00 | 0.00 | 99 | 1009.4 |
| 20260507085130 | 5 | 325 | 4.8 | 4.8 | 0.00 | 0.00 | 0.00 | 99 | 1009.8 |
| 20260507084628 | 5 | 352 | 3.2 | 3.2 | 0.00 | 0.00 | 0.00 | 99 | 1009.8 |
| 20260507084126 | 5 | 338 | 1.6 | 3.2 | 0.00 | 0.00 | 0.00 | 99 | 1009.8 |
| 20260507083628 | 5 | 327 | 1.6 | 1.6 | 0.00 | 0.00 | 0.00 | 99 | 1009.8 |
| 20260507083127 | 5 | 0.0 | 0.0 | 0.00 | 0.00 | 0.00 | 99 | 1009.4 | |
| 20260507082626 | 5 | 350 | 0.0 | 1.6 | 0.00 | 0.00 | 0.00 | 99 | 1009.1 |
| 20260507082226 | 5 | 0.0 | 0.0 | 0.00 | 0.00 | 0.00 | 99 | 1009.1 | |
| 20260507081626 | 5 | 352 | 1.6 | 3.2 | 0.00 | 0.00 | 0.00 | 99 | 1009.1 |
| 20260507081126 | 5 | 348 | 1.6 | 1.6 | 0.00 | 0.00 | 0.00 | 99 | 1009.4 |
| 20260507080624 | 5 | 341 | 1.6 | 1.6 | 0.00 | 0.00 | 0.00 | 99 | 1009.4 |
| 20260507080126 | 5 | 341 | 1.6 | 1.6 | 0.00 | 0.00 | 0.00 | 99 | 1009.3 |
| 20260507075127 | 5 | 340 | 1.6 | 1.6 | 0.00 | 0.00 | 0.00 | 99 | 1009.4 |
| 20260507074723 | 5 | 332 | 1.6 | 1.6 | 0.00 | 0.00 | 0.00 | 99 | 1009.4 |
| 20260507074124 | 5 | 329 | 1.6 | 3.2 | 0.00 | 0.00 | 0.00 | 99 | 1009.4 |
| 20260507073624 | 5 | 343 | 1.6 | 1.6 | 0.00 | 0.00 | 0.00 | 99 | 1009.4 |
| 20260507063119 | 5 | 343 | 3.2 | 3.2 | 0.00 | 0.00 | 0.00 | 99 | 1008.7 |
| 20260507062658 | 5 | 335 | 3.2 | 3.2 | 0.00 | 0.00 | 0.00 | 99 | 1008.7 |
| 20260507052147 | 6 | 0.0 | 0.0 | 0.00 | 0.00 | 0.00 | 99 | 1009.8 | |
| 20260507051645 | 6 | 352 | 1.6 | 1.6 | 0.00 | 0.00 | 0.00 | 99 | 1009.8 |
| 20260507051142 | 6 | 342 | 0.0 | 1.6 | 0.00 | 0.00 | 0.00 | 99 | 1009.8 |
| 20260507050643 | 6 | 0.0 | 0.0 | 0.00 | 0.00 | 0.00 | 99 | 1009.8 | |
| 20260507050142 | 6 | 0.0 | 0.0 | 0.00 | 0.00 | 0.00 | 99 | 1009.6 | |
| 20260507045641 | 6 | 343 | 0.0 | 1.6 | 0.00 | 0.00 | 0.00 | 99 | 1009.4 |
| 20260507045141 | 6 | 344 | 0.0 | 1.6 | 0.00 | 0.00 | 0.00 | 99 | 1009.8 |
| 20260507044642 | 6 | 0.0 | 0.0 | 0.00 | 0.00 | 0.00 | 99 | 1009.8 | |
| 20260507044141 | 6 | 0.0 | 0.0 | 0.00 | 0.00 | 0.00 | 99 | 1009.1 | |
| 20260507043640 | 6 | 341 | 0.0 | 1.6 | 0.00 | 0.00 | 0.00 | 99 | 1009.4 |
| 20260507043140 | 6 | 0.0 | 0.0 | 0.00 | 0.00 | 0.00 | 99 | 1009.4 | |
| 20260507042641 | 6 | 334 | 1.6 | 1.6 | 0.00 | 0.00 | 0.00 | 99 | 1009.3 |
| 20260507041140 | 6 | 0.0 | 0.0 | 0.00 | 0.00 | 0.00 | 99 | 1009.6 | |
| 20260507040638 | 6 | 150 | 3.2 | 8.0 | 0.00 | 0.00 | 0.00 | 99 | 1009.4 |
| 20260507040140 | 6 | 341 | 0.0 | 1.6 | 0.00 | 0.00 | 0.00 | 99 | 1009.8 |
| 20260507035638 | 6 | 0.0 | 0.0 | 0.00 | 0.00 | 1.78 | 99 | 1009.6 | |
| 20260507035137 | 6 | 338 | 1.6 | 3.2 | 0.00 | 0.00 | 1.78 | 99 | 1009.4 |
| 20260507034636 | 6 | 338 | 3.2 | 3.2 | 0.00 | 0.00 | 1.78 | 99 | 1009.4 |
| 20260507034138 | 6 | 311 | 6.4 | 9.7 | 0.00 | 0.00 | 1.78 | 99 | 1009.8 |
| 20260507033637 | 6 | 343 | 3.2 | 3.2 | 0.00 | 0.00 | 1.78 | 99 | 1009.8 |
| 20260507033136 | 6 | 348 | 1.6 | 3.2 | 0.00 | 0.00 | 1.78 | 99 | 1009.4 |
| 20260507032635 | 6 | 327 | 1.6 | 1.6 | 0.00 | 0.00 | 1.78 | 99 | 1009.6 |
| 20260507032136 | 6 | 336 | 1.6 | 4.8 | 0.00 | 0.00 | 1.78 | 99 | 1009.4 |
| 20260507031635 | 6 | 318 | 1.6 | 3.2 | 0.00 | 0.00 | 1.78 | 99 | 1009.4 |
| 20260507031136 | 6 | 348 | 3.2 | 4.8 | 0.00 | 0.00 | 1.78 | 99 | 1009.6 |
| 20260507030635 | 7 | 336 | 1.6 | 3.2 | 0.00 | 0.00 | 1.78 | 99 | 1009.4 |
| 20260507030134 | 7 | 333 | 1.6 | 3.2 | 0.00 | 0.00 | 1.78 | 99 | 1009.8 |
| 20260507025633 | 7 | 341 | 1.6 | 3.2 | 0.00 | 0.00 | 1.78 | 99 | 1009.8 |
| 20260507025132 | 7 | 332 | 4.8 | 9.7 | 0.00 | 0.00 | 1.78 | 99 | 1009.6 |
| 20260507024634 | 7 | 315 | 3.2 | 4.8 | 0.00 | 0.00 | 1.78 | 99 | 1009.4 |
| 20260507024133 | 7 | 338 | 3.2 | 4.8 | 0.00 | 0.00 | 1.78 | 99 | 1009.4 |
| 20260507023632 | 7 | 334 | 4.8 | 8.0 | 0.00 | 0.00 | 1.78 | 99 | 1009.4 |
| 20260507023131 | 7 | 340 | 1.6 | 1.6 | 0.00 | 0.00 | 1.78 | 99 | 1009.6 |
| 20260507022632 | 7 | 323 | 1.6 | 3.2 | 0.00 | 0.00 | 1.78 | 99 | 1009.4 |
| 20260507022132 | 7 | 334 | 3.2 | 8.0 | 0.00 | 0.00 | 1.75 | 99 | 1009.4 |
| 20260507021631 | 7 | 333 | 1.6 | 1.6 | 0.00 | 0.00 | 1.75 | 99 | 1009.8 |
| 20260507021233 | 7 | 311 | 4.8 | 4.8 | 0.00 | 0.00 | 1.75 | 99 | 1009.4 |
| 20260507020631 | 7 | 357 | 6.4 | 12.9 | 0.00 | 0.00 | 1.75 | 99 | 1009.4 |
| 20260507020131 | 7 | 341 | 8.0 | 9.7 | 0.00 | 0.00 | 1.75 | 99 | 1009.8 |
| 20260507015630 | 7 | 333 | 1.6 | 1.6 | 0.00 | 0.00 | 1.73 | 99 | 1009.4 |
| 20260507015129 | 8 | 329 | 3.2 | 4.8 | 0.00 | 0.00 | 1.73 | 99 | 1009.4 |
| 20260507014632 | 8 | 337 | 3.2 | 4.8 | 0.00 | 0.00 | 1.73 | 99 | 1009.4 |
| 20260507014130 | 8 | 2 | 3.2 | 4.8 | 0.00 | 0.00 | 1.70 | 99 | 1009.4 |
| 20260507013629 | 8 | 330 | 3.2 | 8.0 | 0.00 | 0.00 | 1.68 | 99 | 1009.1 |
| 20260507013128 | 8 | 322 | 3.2 | 3.2 | 0.00 | 0.00 | 1.68 | 99 | 1009.1 |
| 20260507012627 | 8 | 332 | 4.8 | 8.0 | 0.00 | 0.00 | 1.68 | 99 | 1009.4 |
| 20260507012128 | 8 | 330 | 3.2 | 4.8 | 0.00 | 0.00 | 1.68 | 99 | 1009.3 |
| 20260507011628 | 8 | 326 | 3.2 | 4.8 | 0.00 | 0.00 | 1.68 | 99 | 1009.1 |
| 20260507010629 | 10 | 341 | 0.0 | 3.2 | 0.00 | 0.00 | 1.68 | 99 | 1008.7 |
| 20260507010227 | 10 | 337 | 3.2 | 4.8 | 0.00 | 0.00 | 1.68 | 99 | 1008.4 |
| 20260507005626 | 10 | 345 | 3.2 | 4.8 | 0.00 | 0.00 | 1.68 | 99 | 1008.4 |
| 20260507005128 | 10 | 338 | 4.8 | 8.0 | 0.00 | 0.00 | 1.68 | 99 | 1008.2 |
| 20260507004728 | 10 | 4 | 4.8 | 8.0 | 0.00 | 0.00 | 1.68 | 99 | 1008.2 |
| 20260507004126 | 10 | 345 | 4.8 | 8.0 | 0.00 | 0.00 | 1.68 | 99 | 1008.0 |
| 20260507003625 | 11 | 335 | 4.8 | 4.8 | 0.00 | 0.00 | 1.68 | 99 | 1007.7 |
| 20260507003124 | 11 | 353 | 4.8 | 8.0 | 0.00 | 0.00 | 1.68 | 99 | 1007.7 |
| 20260507002624 | 11 | 4 | 3.2 | 8.0 | 0.00 | 0.00 | 1.68 | 99 | 1007.7 |
| 20260507002124 | 12 | 336 | 3.2 | 3.2 | 0.00 | 0.00 | 1.68 | 99 | 1007.7 |
| 20260507001623 | 12 | 337 | 1.6 | 1.6 | 0.00 | 0.00 | 1.68 | 99 | 1007.7 |
| 20260507001122 | 12 | 347 | 3.2 | 3.2 | 0.00 | 0.00 | 1.68 | 99 | 1007.3 |
| 20260507000622 | 12 | 338 | 1.6 | 1.6 | 0.00 | 0.00 | 1.68 | 99 | 1007.3 |
| 20260507000123 | 12 | 330 | 3.2 | 4.8 | 0.00 | 0.00 | 1.68 | 99 | 1007.3 |
| 20260506235121 | 12 | 313 | 4.8 | 4.8 | 0.00 | 0.00 | 1.68 | 99 | 1007.0 |
| 20260506234622 | 13 | 347 | 6.4 | 11.3 | 0.00 | 0.00 | 1.68 | 99 | 1007.0 |
| 20260506234121 | 13 | 327 | 1.6 | 4.8 | 0.00 | 0.00 | 1.68 | 99 | 1007.0 |
| 20260506233620 | 13 | 347 | 3.2 | 4.8 | 0.00 | 0.00 | 1.65 | 99 | 1007.0 |
| 20260506233120 | 13 | 329 | 1.6 | 1.6 | 0.00 | 0.00 | 1.57 | 99 | 1006.6 |
| 20260506232621 | 13 | 334 | 0.0 | 1.6 | 0.00 | 0.00 | 1.57 | 99 | 1006.6 |
| 20260506232120 | 13 | 315 | 0.0 | 1.6 | 0.00 | 0.00 | 1.55 | 99 | 1006.6 |
| 20260506231619 | 13 | 348 | 1.6 | 1.6 | 0.00 | 0.00 | 1.52 | 99 | 1006.3 |
| 20260506231118 | 13 | 0.0 | 0.0 | 0.00 | 0.00 | 1.47 | 99 | 1006.3 | |
| 20260506230618 | 13 | 281 | 4.8 | 4.8 | 0.00 | 0.00 | 1.47 | 99 | 1006.6 |
| 20260506230119 | 13 | 112 | 8.0 | 9.7 | 0.00 | 0.00 | 1.40 | 99 | 1006.3 |
| 20260506225618 | 13 | 211 | 6.4 | 9.7 | 0.00 | 0.00 | 1.30 | 99 | 1006.3 |
| 20260506225118 | 13 | 218 | 4.8 | 8.0 | 0.00 | 0.00 | 1.27 | 99 | 1006.3 |
| 20260506224616 | 13 | 99 | 4.8 | 9.7 | 0.00 | 0.00 | 1.24 | 99 | 1006.3 |
| 20260506224119 | 13 | 323 | 3.2 | 3.2 | 0.00 | 0.00 | 1.22 | 99 | 1006.3 |
| 20260506223618 | 13 | 52 | 3.2 | 4.8 | 0.00 | 0.00 | 1.19 | 99 | 1006.3 |
| 20260506223146 | 13 | 171 | 6.4 | 9.7 | 0.00 | 0.00 | 1.19 | 99 | 1006.3 |
| 20260506222645 | 13 | 46 | 4.8 | 8.0 | 0.00 | 0.00 | 1.19 | 99 | 1006.3 |
| 20260506222147 | 13 | 101 | 4.8 | 8.0 | 0.00 | 0.00 | 1.19 | 99 | 1006.3 |
| 20260506221646 | 13 | 316 | 3.2 | 4.8 | 0.00 | 0.00 | 1.19 | 99 | 1006.3 |
| 20260506221145 | 13 | 181 | 4.8 | 8.0 | 0.00 | 0.00 | 1.19 | 99 | 1006.3 |
| 20260506220644 | 13 | 201 | 6.4 | 9.7 | 0.00 | 0.00 | 1.17 | 99 | 1006.5 |
| 20260506220143 | 13 | 4 | 4.8 | 8.0 | 0.00 | 0.00 | 1.17 | 99 | 1006.6 |
| 20260506215644 | 13 | 195 | 6.4 | 11.3 | 0.00 | 0.00 | 1.17 | 99 | 1006.6 |
| 20260506215143 | 13 | 175 | 12.9 | 16.1 | 0.00 | 0.00 | 1.17 | 99 | 1006.5 |
| 20260506214643 | 13 | 49 | 4.8 | 8.0 | 0.00 | 0.00 | 1.17 | 99 | 1006.3 |
| 20260506214142 | 13 | 166 | 9.7 | 11.3 | 0.00 | 0.00 | 1.17 | 99 | 1006.3 |
| 20260506213643 | 13 | 119 | 6.4 | 9.7 | 0.00 | 0.00 | 1.14 | 99 | 1006.3 |
| 20260506213142 | 13 | 7 | 3.2 | 4.8 | 0.00 | 0.00 | 1.14 | 99 | 1006.3 |
| 20260506212646 | 13 | 88 | 4.8 | 9.7 | 0.00 | 0.00 | 1.14 | 99 | 1006.3 |
| 20260506212141 | 13 | 140 | 4.8 | 4.8 | 0.00 | 0.00 | 1.14 | 99 | 1006.3 |
| 20260506211640 | 13 | 138 | 8.0 | 11.3 | 0.00 | 0.00 | 1.12 | 99 | 1006.5 |
| 20260506211141 | 13 | 173 | 9.7 | 16.1 | 0.00 | 0.00 | 1.12 | 99 | 1006.3 |
| 20260506210641 | 13 | 143 | 11.3 | 12.9 | 0.00 | 0.00 | 1.09 | 99 | 1006.3 |
| 20260506210139 | 13 | 155 | 9.7 | 14.5 | 0.00 | 0.00 | 1.09 | 99 | 1006.3 |
| 20260506205641 | 13 | 158 | 4.8 | 8.0 | 0.00 | 0.00 | 1.09 | 99 | 1006.3 |
| 20260506204639 | 13 | 170 | 11.3 | 12.9 | 0.00 | 0.00 | 1.09 | 99 | 1006.3 |
| 20260506204138 | 13 | 155 | 6.4 | 14.5 | 0.00 | 0.00 | 1.07 | 99 | 1006.3 |
| 20260506203639 | 13 | 106 | 9.7 | 16.1 | 0.00 | 0.00 | 1.07 | 99 | 1006.3 |
| 20260506202639 | 13 | 277 | 3.2 | 4.8 | 0.00 | 0.00 | 1.04 | 99 | 1006.3 |
| 20260506202137 | 13 | 178 | 11.3 | 17.7 | 0.00 | 0.00 | 1.04 | 99 | 1006.6 |
| 20260506201637 | 13 | 261 | 4.8 | 9.7 | 0.00 | 0.00 | 1.04 | 99 | 1006.6 |
| 20260506201138 | 14 | 80 | 8.0 | 9.7 | 0.00 | 0.00 | 1.04 | 99 | 1006.5 |
| 20260506200637 | 14 | 151 | 9.7 | 14.5 | 0.00 | 0.00 | 1.04 | 99 | 1006.6 |
| 20260506195737 | 14 | 188 | 11.3 | 16.1 | 0.00 | 0.00 | 1.02 | 99 | 1006.8 |
| 20260506195135 | 14 | 158 | 8.0 | 12.9 | 0.00 | 0.00 | 1.02 | 99 | 1006.6 |
| 20260506194635 | 14 | 159 | 9.7 | 14.5 | 0.00 | 0.00 | 1.02 | 99 | 1007.0 |
| 20260506194134 | 14 | 165 | 11.3 | 14.5 | 0.00 | 0.00 | 1.02 | 99 | 1006.8 |
| 20260506193637 | 14 | 142 | 9.7 | 12.9 | 0.00 | 0.00 | 0.99 | 99 | 1007.0 |
| 20260506193139 | 14 | 243 | 9.7 | 14.5 | 0.00 | 0.00 | 0.99 | 99 | 1007.0 |
| 20260506192634 | 14 | 121 | 8.0 | 12.9 | 0.00 | 0.00 | 0.99 | 99 | 1006.8 |
| 20260506192133 | 14 | 166 | 9.7 | 14.5 | 0.00 | 0.00 | 0.99 | 99 | 1007.0 |
| 20260506191632 | 14 | 119 | 11.3 | 14.5 | 0.00 | 0.00 | 0.97 | 99 | 1007.0 |
| 20260506191133 | 14 | 183 | 11.3 | 16.1 | 0.00 | 0.00 | 0.94 | 99 | 1007.0 |
| 20260506190632 | 14 | 169 | 12.9 | 17.7 | 0.00 | 0.00 | 0.94 | 99 | 1007.2 |
| 20260506190132 | 14 | 164 | 8.0 | 11.3 | 0.00 | 0.00 | 0.91 | 99 | 1007.0 |
| 20260506185630 | 14 | 90 | 6.4 | 11.3 | 0.00 | 0.00 | 0.89 | 99 | 1007.0 |
| 20260506185132 | 13 | 167 | 14.5 | 22.5 | 0.00 | 0.00 | 0.86 | 99 | 1007.3 |
| 20260506184632 | 13 | 170 | 6.4 | 8.0 | 0.00 | 0.00 | 0.84 | 99 | 1007.3 |
| 20260506184230 | 13 | 153 | 9.7 | 16.1 | 0.00 | 0.00 | 0.81 | 99 | 1007.3 |
| 20260506183629 | 13 | 93 | 4.8 | 8.0 | 0.00 | 0.00 | 0.76 | 99 | 1007.3 |
| 20260506183128 | 13 | 200 | 6.4 | 9.7 | 0.00 | 0.00 | 0.74 | 99 | 1007.7 |
| 20260506182630 | 13 | 162 | 9.7 | 14.5 | 0.00 | 0.00 | 0.69 | 99 | 1007.7 |
| 20260506182129 | 13 | 283 | 3.2 | 8.0 | 0.00 | 0.00 | 0.66 | 99 | 1007.7 |
| 20260506181628 | 13 | 35 | 3.2 | 3.2 | 0.00 | 0.00 | 0.64 | 99 | 1007.7 |
| 20260506181129 | 13 | 133 | 9.7 | 14.5 | 0.00 | 0.00 | 0.64 | 99 | 1008.0 |
| 20260506180628 | 13 | 352 | 3.2 | 3.2 | 0.00 | 0.00 | 0.61 | 99 | 1007.9 |
| 20260506180128 | 13 | 142 | 11.3 | 14.5 | 0.00 | 0.00 | 0.56 | 99 | 1008.4 |
| 20260506175629 | 13 | 158 | 9.7 | 12.9 | 0.00 | 0.00 | 0.53 | 99 | 1008.0 |
| 20260506175126 | 13 | 139 | 8.0 | 11.3 | 0.00 | 0.00 | 0.51 | 99 | 1008.2 |
| 20260506174727 | 13 | 111 | 11.3 | 14.5 | 0.00 | 0.00 | 0.46 | 99 | 1008.4 |
| 20260506174127 | 13 | 182 | 9.7 | 12.9 | 0.00 | 0.00 | 0.43 | 99 | 1008.7 |
| 20260506173625 | 13 | 175 | 6.4 | 11.3 | 0.00 | 0.00 | 0.41 | 99 | 1008.6 |
| 20260506173225 | 13 | 127 | 9.7 | 20.9 | 0.00 | 0.00 | 0.38 | 99 | 1008.7 |
| 20260506172624 | 13 | 113 | 9.7 | 14.5 | 0.00 | 0.00 | 0.36 | 99 | 1008.7 |
| 20260506172126 | 13 | 128 | 8.0 | 9.7 | 0.00 | 0.00 | 0.33 | 99 | 1008.7 |
| 20260506171626 | 13 | 180 | 4.8 | 8.0 | 0.00 | 0.00 | 0.30 | 99 | 1008.7 |
| 20260506171124 | 13 | 142 | 9.7 | 16.1 | 0.00 | 0.00 | 0.28 | 99 | 1009.1 |
| 20260506170623 | 13 | 144 | 6.4 | 8.0 | 0.00 | 0.00 | 0.23 | 99 | 1009.1 |
| 20260506170128 | 13 | 177 | 6.4 | 9.7 | 0.00 | 0.00 | 0.23 | 99 | 1009.1 |
| 20260506165626 | 13 | 153 | 4.8 | 8.0 | 0.00 | 0.00 | 0.20 | 99 | 1008.7 |
| 20260506165122 | 13 | 23 | 3.2 | 4.8 | 0.00 | 0.00 | 0.18 | 99 | 1008.9 |
| 20260506164622 | 13 | 213 | 6.4 | 8.0 | 0.00 | 0.00 | 0.15 | 99 | 1008.9 |
| 20260506164122 | 13 | 122 | 6.4 | 9.7 | 0.00 | 0.00 | 0.13 | 99 | 1008.7 |
| 20260506163622 | 13 | 210 | 8.0 | 11.3 | 0.00 | 0.00 | 0.10 | 99 | 1008.7 |
| 20260506163123 | 14 | 77 | 6.4 | 8.0 | 0.00 | 0.00 | 0.08 | 99 | 1009.1 |
| 20260506162724 | 14 | 81 | 8.0 | 12.9 | 0.00 | 0.00 | 0.08 | 99 | 1009.1 |
| 20260506162121 | 14 | 245 | 6.4 | 11.3 | 0.00 | 0.00 | 0.05 | 99 | 1009.1 |
| 20260506161621 | 14 | 201 | 8.0 | 17.7 | 0.00 | 0.00 | 0.03 | 99 | 1009.1 |
| 20260506161122 | 14 | 147 | 6.4 | 11.3 | 0.00 | 0.00 | 0.03 | 99 | 1009.1 |
| 20260506160620 | 14 | 102 | 8.0 | 11.3 | 0.00 | 0.00 | 0.03 | 99 | 1009.1 |
| 20260506160120 | 14 | 137 | 6.4 | 8.0 | 0.00 | 0.00 | 0.00 | 99 | 1009.3 |
| 20260506155619 | 14 | 158 | 11.3 | 14.5 | 0.00 | 0.00 | 0.00 | 98 | 1009.1 |
| 20260506155121 | 15 | 175 | 8.0 | 12.9 | 0.00 | 0.00 | 0.00 | 98 | 1009.1 |
| 20260506154619 | 15 | 144 | 14.5 | 16.1 | 0.00 | 0.00 | 0.00 | 97 | 1009.4 |
| 20260506154119 | 15 | 134 | 9.7 | 14.5 | 0.00 | 0.00 | 0.00 | 97 | 1009.4 |
| 20260506153618 | 14 | 34 | 4.8 | 4.8 | 0.00 | 0.00 | 0.00 | 97 | 1009.8 |
| 20260506153118 | 14 | 171 | 8.0 | 12.9 | 0.00 | 0.00 | 0.00 | 97 | 1009.4 |
| 20260506152620 | 14 | 157 | 14.5 | 22.5 | 0.00 | 0.00 | 0.00 | 96 | 1009.6 |
| 20260506152117 | 15 | 214 | 8.0 | 11.3 | 0.00 | 0.00 | 0.00 | 96 | 1009.8 |
| 20260506151617 | 14 | 107 | 4.8 | 8.0 | 0.00 | 0.00 | 0.00 | 96 | 1009.8 |
| 20260506151116 | 14 | 148 | 4.8 | 8.0 | 0.00 | 0.00 | 0.00 | 96 | 1009.8 |
| 20260506150619 | 14 | 92 | 6.4 | 11.3 | 0.00 | 0.00 | 0.00 | 95 | 1009.8 |
| 20260506150146 | 14 | 125 | 6.4 | 9.7 | 0.00 | 0.00 | 0.00 | 94 | 1010.1 |
| 20260506145647 | 14 | 170 | 8.0 | 11.3 | 0.00 | 0.00 | 0.00 | 93 | 1010.1 |
| 20260506144646 | 14 | 182 | 6.4 | 8.0 | 0.00 | 0.00 | 0.00 | 93 | 1010.1 |
| 20260506144145 | 14 | 124 | 4.8 | 8.0 | 0.00 | 0.00 | 0.00 | 93 | 1010.1 |
| 20260506143143 | 14 | 231 | 8.0 | 11.3 | 0.00 | 0.00 | 0.00 | 92 | 1010.1 |
| 20260506142645 | 14 | 119 | 6.4 | 8.0 | 0.00 | 0.00 | 0.00 | 92 | 1009.8 |
| 20260506142144 | 14 | 133 | 9.7 | 16.1 | 0.00 | 0.00 | 0.00 | 92 | 1009.8 |
| 20260506141643 | 14 | 58 | 4.8 | 8.0 | 0.00 | 0.00 | 0.00 | 92 | 1009.8 |
| 20260506141142 | 15 | 139 | 11.3 | 12.9 | 0.00 | 0.00 | 0.00 | 92 | 1009.8 |
| 20260506140742 | 15 | 144 | 9.7 | 11.3 | 0.00 | 0.00 | 0.00 | 93 | 1009.8 |
| 20260506140243 | 14 | 186 | 11.3 | 12.9 | 0.00 | 0.00 | 0.00 | 93 | 1009.8 |
| 20260506135641 | 14 | 132 | 9.7 | 12.9 | 0.00 | 0.00 | 0.00 | 93 | 1009.4 |
| 20260506135141 | 14 | 257 | 9.7 | 12.9 | 0.00 | 0.00 | 0.00 | 93 | 1009.4 |
| 20260506134640 | 14 | 127 | 9.7 | 16.1 | 0.00 | 0.00 | 0.00 | 94 | 1009.6 |
| 20260506134141 | 13 | 137 | 9.7 | 11.3 | 0.00 | 0.00 | 0.00 | 95 | 1009.8 |
| 20260506133640 | 13 | 129 | 4.8 | 4.8 | 0.00 | 0.00 | 0.00 | 96 | 1009.8 |
| 20260506133139 | 13 | 32 | 1.6 | 3.2 | 0.00 | 0.00 | 0.00 | 96 | 1009.8 |
| 20260506132638 | 13 | 178 | 8.0 | 12.9 | 0.00 | 0.00 | 0.00 | 96 | 1009.8 |
| 20260506132140 | 13 | 172 | 8.0 | 9.7 | 0.00 | 0.00 | 0.00 | 96 | 1009.8 |
| 20260506131639 | 13 | 266 | 3.2 | 3.2 | 0.00 | 0.00 | 0.00 | 97 | 1009.8 |
| 20260506131138 | 13 | 170 | 11.3 | 16.1 | 0.00 | 0.00 | 0.00 | 97 | 1010.1 |
| 20260506130637 | 13 | 185 | 8.0 | 11.3 | 0.00 | 0.00 | 0.00 | 97 | 1010.1 |
| 20260506130137 | 12 | 158 | 11.3 | 11.3 | 0.00 | 0.00 | 0.00 | 97 | 1010.1 |
| 20260506125638 | 12 | 61 | 4.8 | 8.0 | 0.00 | 0.00 | 0.00 | 97 | 1010.1 |
| 20260506125237 | 12 | 199 | 9.7 | 12.9 | 0.00 | 0.00 | 0.00 | 97 | 1010.1 |
| 20260506124636 | 12 | 167 | 6.4 | 9.7 | 0.00 | 0.00 | 0.00 | 97 | 1010.1 |
| 20260506124135 | 12 | 33 | 6.4 | 8.0 | 0.00 | 0.00 | 0.00 | 97 | 1010.5 |